Location: Unspecified
(40.7945°N, 111.1337°W)
Time: 16:51:15
(UTC-06:00)

Resurs 1-4 Rocket - Pass Details

Date: 26 March 2019
Orbit: 799 x 815 km, 98.6° (Epoch: 21 April)

Event Time Altitude Azimuth Distance (km) Brightness Sun altitude
Rises 02:35:41 0° 21° (NNE) 3,327 6.1 -44.5°
Reaches altitude 10° 02:38:12 10° 29° (NNE) 2,389 5.1 -44.4°
Enters shadow 02:38:45 13° 32° (NNE) 2,189 4.9 -44.3°
